SCP
0 0 0 0 0 0 0 0 0 0 0 0 0 0 0 0 -0 -0 -0 -0 -0 -0 -0 -0 -0 -0 -0 -0 -0 -0 -0 -0 -0 -0 -0 -0 -0 -0 -0 -0 -0 -0 0
0 0 0 0 0 0 0 0 0 0 0 0 0 0 0 0 -0 -0 -0 -0 -0 -0 -0 -0 -0 -0 -0 -0 -0 -0 -0 -0 -0 -0 -0 -0 -0 -0 -0 -0 -0 0 0
0 0 0 0 0 0 0 0 0 0 0 0 0 0 0 0 -0 -0 -0 -0 -0 -0 -0 -0 -0 -0 -0 -0 -0 -0 -0 -0 -0 -0 -0 -0 -0 -0 -0 -0 0 0 0
0 0 0 0 0 0 0 0 0 0 0 0 0 0 0 -0 -0 -0 -0 -0 -0 -0 -0 -0 -0 -0 -0 -0 -0 -0 -0 -0 -0 -0 -0 -0 -0 -0 -0 -0 -0 -0 0
0 0 0 0 0 0 0 0 0 0 0 0 0 0 0 -0 -0 -0 -0 -0 -0 -0 -0 -0 -0 -0 -0 -0 -0 -0 -0 -0 -0 -0 -0 -0 -0 -0 -0 -0 -0 -0 -0
0 0 0 0 0 0 0 0 0 0 0 0 0 0 0 0 -0 -0 -0 0 0 0 0 0 0 0 0 0 -0 -0 -0 -0 -0 -0 -0 -0 -0 -0 -0 -0 -0 -0 -0
0 0 0 0 0 0 0 0 0 0 0 0 0 0 0 0 0 0 0 0 0 0 0 0 0 0 0 0 0 -0 -0 -0 -0 -0 -0 -0 -0 -0 -0 -0 -0 -0 -0
0 0 0 0 0 0 0 0 0 0 0 0 0 0 0 0 0 0 0 0 0 0 0 0 0 0 0 0 0 0 0 0 -0 -0 -0 -0 -0 -0 -0 -0 -0 -0 -0
0 0 0 0 0 0 0 0 0 0 0 0 0 0 0 0 0 0 0 0 0 0 0 0 0 0 0 0 0 0 0 0 0 0 0 0 0 -0 -0 -0 -0 -0 -0
0 0 0 0 0 0 0 0 0 0 0 0 0 0 0 0 0 0 0 0 0 0 0 0 0 0 0 0 0 0 0 0 0 0 0 0 0 0 0 -0 -0 -0 -0
0 0 0 0 0 0 0 0 0 0 0 0 0 0 0 0 0 0 0 0 0 0 0 0 0 0 0 0 0 0 0 0 0 0 0 0 0 0 0 0 -0 -0 -0
0 0 0 0 0 0 0 0 0 0 0 0 0 0 0 0 0 0 0 0 0 0 0 0 0 0 0 0 0 0 0 0 0 0 0 0 0 0 0 0 0 0 -0
0 0 0 0 0 0 0 0 0 0 0 0 0 0 0 0 0 0 0 0 0 0 0 0 0 0 0 0 0 0 0 0 0 0 0 0 0 0 0 0 0 0 0
0 0 0 0 0 0 0 0 0 0 0 0 0 0 0 0 0 0 0 0 0 0 0 0 0 0 0 0 0 0 0 0 0 0 0 0 0 0 0 0 0 0 0
0 0 0 0 0 0 0 0 0 0 0 0 0 0 0 0 0 0 0 0 0 0 0 0 0 0 0 0 0 0 0 0 0 0 0 0 0 0 0 0 0 0 0
0 0 0 0 0 0 0 0 0 0 0 0 0 0 0 0 0 0 0 0 0 0 0 0 0 0 0 0 0 0 0 0 0 0 0 0 0 0 0 0 0 0 0
0 0 0 0 0 0 0 0 0 0 0 0 0 0 0 0 0 -0 -0 -0 0 0 0 0 0 0 0 0 0 0 0 0 0 0 0 0 0 0 0 0 0 0 0
0 0 0 0 0 0 0 0 0 -0 -0 0 0 0 0 0 0 -0 -0 -0 0 0 0 0 0 0 0 0 0 0 0 0 0 0 0 0 0 0 0 0 0 0 0
0 0 0 0 0 0 0 0 0 -0 -0 -0 0 0 0 0 0 0 -0 -0 0 0 0 0 0 0 0 0 0 0 0 0 0 0 0 0 0 0 0 0 0 0 0
0 0 0 0 0 0 0 0 0 -0 -0 -0 0 0 -0 -0 -0 0 0 0 0 0 0 0 0 0 0 0 0 0 0 0 0 0 0 0 0 0 0 0 0 0 0
0 0 0 0 0 0 0 0 -0 -0 -0 -0 0 0 -0 -0 -0 -0 0 0 0 0 0 0 0 0 0 0 0 0 0 0 0 0 0 0 0 0 0 0 0 0 0
0 0 0 0 0 0 0 0 -0 -0 -0 -0 0 -0 -0 -0 -0 0 0 0 0 0 0 0 0 0 0 0 0 0 0 0 0 0 0 0 0 0 0 0 0 0 0
0 0 0 0 0 0 -0 -0 -0 -0 -0 -0 -0 -0 -0 -0 -0 0 0 0 0 0 0 0 0 0 0 0 0 0 0 0 0 0 0 0 0 0 0 0 0 0 0
0 0 0 0 0 -0 -0 -0 -0 -0 -0 -0 -0 -0 -0 -0 -0 0 0 0 0 0 0 0 0 0 0 0 0 0 0 0 0 0 0 0 0 0 0 0 0 0 0
0 0 0 0 0 -0 -0 -0 -0 -0 -0 -0 -0 -0 -0 -0 -0 0 0 0 0 0 0 0 0 0 0 0 0 0 0 0 0 0 0 0 0 0 0 0 0 0 0
0 0 0 0 0 -0 -0 -0 -0 -0 -0 -0 -0 -0 -0 -0 0 0 0 0 0 0 0 0 0 0 0 0 0 0 0 0 0 0 0 0 0 0 0 0 0 0 0
Wind_Speed
9 8 8 8 8 8 7 7 7 6 5 3 3 2 2 2 2 2 2 2 2 2 2 1 3 2 2 2 3 3 4 3 1 2 3 3 3 3 3 2 3 4 5
10 9 9 9 9 9 8 8 7 7 6 4 3 2 2 1 1 1 2 1 2 2 1 2 2 2 2 2 3 2 2 2 0 1 1 1 3 2 2 2 2 3 3
11 11 11 10 10 9 9 7 8 8 7 6 4 3 3 2 3 2 2 1 1 1 1 1 1 1 1 2 2 2 1 1 1 2 3 2 1 1 2 2 2 3 2
11 10 11 11 11 10 9 9 8 8 8 7 6 6 4 3 2 2 2 2 2 2 1 1 1 2 1 2 1 1 1 1 1 1 2 3 3 2 1 2 2 2 2
10 11 11 11 10 9 8 8 8 8 8 8 7 6 4 3 2 2 3 3 2 2 2 2 2 2 1 1 1 1 0 0 1 1 0 1 0 3 2 0 0 1 1
10 10 9 9 8 8 8 8 9 8 8 8 8 7 6 5 4 4 3 3 2 2 2 2 2 2 2 2 1 1 1 0 1 1 1 1 1 2 2 2 1 1 1
9 9 9 9 9 9 9 9 9 9 9 9 9 8 7 6 6 5 4 3 2 2 3 3 2 2 2 2 2 1 1 1 0 1 1 1 2 2 2 2 2 1 0
9 9 9 8 8 9 9 9 10 9 9 9 9 7 7 5 4 4 4 3 2 2 3 3 2 2 2 2 2 1 1 1 1 0 1 1 1 2 2 2 3 2 1
8 9 9 9 8 9 9 9 9 9 9 9 8 7 7 6 5 5 4 3 3 3 3 3 3 3 3 3 3 2 2 1 1 1 1 1 0 1 1 2 2 3 3
7 8 8 8 8 7 8 8 9 9 8 8 7 6 6 6 5 5 5 4 4 4 4 4 3 3 3 3 3 2 1 2 1 0 0 0 0 0 1 1 2 3 3
7 7 7 7 7 7 7 7 8 8 7 7 7 7 6 6 6 5 4 4 4 4 4 4 3 3 3 4 3 3 3 2 2 2 1 1 1 1 1 1 1 2 2
6 7 7 7 7 7 7 7 8 8 7 7 7 6 6 6 6 5 5 5 5 4 4 4 4 3 3 3 4 3 3 3 2 1 1 1 1 1 1 1 2 1 2
6 6 7 7 7 7 7 7 7 7 7 6 6 7 7 6 6 5 5 5 5 5 4 4 4 4 3 3 3 3 3 3 2 2 2 2 2 2 1 2 2 1 1
6 6 6 7 7 7 6 6 6 6 6 6 6 6 6 6 6 5 5 5 4 4 4 4 4 3 3 3 3 3 3 3 2 2 2 1 2 2 2 2 2 2 2
5 6 6 6 7 7 6 6 6 6 6 6 6 6 6 5 5 5 5 4 4 4 4 4 3 3 2 2 3 3 3 3 3 2 2 1 1 3 3 2 2 2 2
5 5 6 6 7 7 6 6 6 6 6 6 6 5 5 5 5 5 5 4 4 4 3 3 3 3 2 2 1 3 3 3 3 2 2 2 2 2 2 1 3 4 4
5 6 6 6 7 7 7 6 6 6 6 6 5 5 5 5 5 5 5 5 5 4 4 4 3 3 3 4 4 4 4 3 3 3 2 1 1 2 2 4 5 4 4
5 5 5 6 6 6 6 6 6 6 6 6 5 5 5 5 5 5 5 5 4 4 4 4 4 3 2 4 4 5 5 4 3 3 3 3 2 2 3 3 3 2 2
4 5 5 6 6 6 6 6 6 6 6 5 5 5 6 5 5 5 5 4 4 4 4 4 4 4 4 4 4 5 4 4 4 3 3 3 3 0 2 4 4 4 3
3 4 5 5 6 6 6 6 6 6 5 5 5 5 5 5 5 5 4 3 3 3 3 3 3 4 3 3 4 6 4 4 3 3 3 2 2 1 2 4 4 5 4
4 4 5 5 5 6 6 6 5 4 4 4 4 4 5 5 5 4 4 4 3 3 3 3 2 3 2 3 3 4 4 4 4 3 3 1 2 3 3 5 4 4 5
5 5 5 5 5 5 5 5 4 3 3 4 4 4 5 4 4 4 4 4 4 4 3 3 2 2 2 2 3 4 4 4 4 3 2 1 2 3 4 3 3 4 5
5 5 5 5 5 5 4 5 4 4 4 4 4 4 4 4 4 4 4 3 3 3 2 2 2 2 1 2 3 3 4 4 3 2 1 0 2 3 3 2 3 4 3
4 4 5 5 5 4 4 3 4 4 5 5 4 4 4 4 4 3 3 3 3 3 3 2 2 2 2 2 2 2 3 3 3 2 2 3 3 3 2 2 3 3 2
4 4 4 5 5 5 4 4 4 4 4 4 4 4 3 3 3 3 1 2 2 1 2 2 2 2 2 1 0 1 2 2 2 2 2 2 2 2 2 2 2 2 2
4 4 4 4 4 4 4 3 4 4 4 3 3 3 3 3 3 3 2 3 1 2 1 1 2 1 0 1 1 1 0 0 2 2 2 2 2 3 3 2 2 3 3
Wind_Direction
191 188 188 189 189 189 189 179 179 172 167 163 166 156 139 126 100 79 74 77 64 70 81 85 81 85 100 103 113 117 117 110 106 138 125 117 94 76 72 42 38 53 46
195 191 193 192 197 194 196 193 188 181 176 172 170 168 151 142 105 114 98 80 79 79 100 109 110 107 109 117 112 126 124 108 308 290 237 168 149 123 77 57 30 36 50
202 195 194 195 196 198 197 197 194 185 182 176 171 166 161 178 168 157 128 89 90 97 96 114 114 120 143 125 122 141 144 139 120 352 326 321 24 94 117 67 56 41 31
207 199 196 199 199 198 197 197 193 189 183 180 186 187 193 190 177 159 142 146 143 135 145 148 154 144 123 127 146 119 146 237 163 107 358 353 7 301 144 140 80 43 30
204 201 200 201 201 194 195 198 191 188 186 188 190 202 203 190 173 165 158 162 142 154 161 166 168 158 149 144 122 118 201 254 316 326 20 43 313 292 311 344 89 115 65
197 198 196 197 195 189 191 194 191 188 188 194 197 205 202 197 188 189 179 177 156 166 166 173 174 172 164 159 155 153 149 353 17 315 315 305 307 318 318 299 292 348 62
190 189 186 189 188 187 190 191 191 192 192 197 202 203 204 202 201 199 191 196 178 174 169 176 182 172 174 177 182 186 182 172 195 296 327 332 331 332 317 310 323 321 31
187 188 186 188 188 188 189 192 193 196 194 199 201 200 198 205 202 203 198 200 194 177 168 179 179 175 180 183 179 204 188 195 191 209 306 292 333 327 321 321 312 293 265
185 187 187 189 189 189 191 194 194 195 194 198 198 199 198 200 198 198 199 197 193 180 178 178 177 176 177 182 179 193 181 184 195 177 179 260 54 297 312 304 301 305 304
180 183 184 188 190 189 191 191 195 194 192 195 195 195 201 197 195 193 192 192 188 182 182 186 181 176 172 174 179 183 167 171 135 79 313 338 299 332 279 282 289 300 306
178 180 181 186 186 180 179 184 187 187 186 190 191 190 191 189 188 190 188 191 188 187 190 190 191 187 182 176 172 187 178 192 173 179 191 195 308 261 250 258 270 282 291
175 174 174 176 178 179 180 185 184 183 183 186 185 187 183 183 188 187 189 191 185 188 195 190 193 189 189 189 187 189 194 202 212 211 225 227 200 243 273 269 262 269 282
166 165 169 174 176 178 181 184 183 182 179 181 185 188 188 188 190 191 190 192 191 189 194 197 197 194 197 197 199 201 202 209 223 237 248 253 240 235 228 251 265 272 269
164 164 169 172 173 175 177 180 181 179 177 179 186 192 193 190 190 189 189 192 194 195 199 198 198 200 199 204 206 207 209 210 215 231 243 261 264 265 254 245 260 264 258
168 170 173 171 172 171 173 175 178 175 175 180 187 191 190 185 185 182 185 185 189 198 198 195 195 195 200 213 218 207 208 209 209 212 216 216 5 5 341 319 294 270 259
175 174 176 172 173 172 175 178 178 176 174 178 182 178 182 179 180 181 181 182 184 190 190 196 190 185 183 136 215 247 207 209 211 212 216 193 184 182 204 277 315 316 293
178 179 181 179 176 176 176 177 175 172 176 180 177 174 177 176 180 177 178 181 184 186 192 197 193 192 170 157 184 232 232 223 230 230 223 219 214 223 226 204 210 230 259
180 181 182 179 177 171 172 173 173 175 178 181 178 174 176 177 176 177 182 190 190 184 194 200 199 199 176 170 193 217 226 231 231 233 235 232 232 238 268 263 257 267 256
192 184 182 173 167 164 169 173 175 175 178 182 184 178 177 175 175 179 187 190 190 192 195 198 202 203 191 177 201 220 221 230 232 232 238 249 249 295 270 263 266 268 263
171 169 166 162 160 159 166 173 173 177 182 185 187 179 177 176 180 183 184 179 186 196 196 194 205 211 213 162 196 228 227 231 234 233 233 230 266 256 245 255 263 270 278
136 143 150 154 155 157 166 171 169 176 181 180 176 173 175 179 178 177 177 178 179 183 193 194 199 209 214 174 187 221 236 237 241 237 234 221 188 242 253 267 273 290 298
134 141 144 143 144 154 164 165 166 171 168 168 170 174 173 170 168 168 174 178 177 183 192 201 207 218 210 212 195 207 238 270 250 252 252 217 179 218 242 251 267 283 283
138 146 147 142 140 149 163 163 158 163 163 162 167 172 169 163 166 167 168 174 183 195 200 204 220 222 218 186 185 202 221 248 252 263 320 275 200 214 219 224 255 256 259
139 149 152 147 145 148 157 158 156 164 162 158 158 164 166 162 163 166 172 179 186 195 204 211 223 229 220 213 192 195 199 198 215 226 190 191 210 222 224 227 238 254 270
146 154 155 152 155 154 154 156 158 163 163 157 154 159 157 155 155 147 135 195 187 211 223 220 218 224 231 240 302 237 224 228 224 222 216 222 219 228 237 246 253 253 251
155 157 156 161 162 156 154 157 163 171 168 159 154 155 156 154 156 151 126 69 94 104 161 293 271 258 345 97 163 210 258 197 207 224 222 230 236 243 247 248 251 253 260